PDA3014 UKLH-UKBB

Flight info

Callsign PDA3014
Flight time N/A
Altitude 15000
Route SORON M986 SLV
Aircraft AN24/M-SDRUYZ/C

Departure

Time 2026-04-23 10:30
Airport Khmelnytskyi Airport (UKLH)

Arrival

Time N/A
Airport Boryspil International Airport (UKBB)
Time Latitude Longitude Altitude Speed Heading
2026-04-23 10:18 49.35887 26.93715 1152 ft 0 kts 250°
2026-04-23 10:27 49.35881 26.93689 1152 ft 13 kts 251°
2026-04-23 10:27 49.35884 26.93524 1149 ft 22 kts 259°
2026-04-23 10:27 49.35857 26.93375 1151 ft 7 kts 212°
2026-04-23 10:28 49.35709 26.93434 1150 ft 39 kts 169°
2026-04-23 10:28 49.35453 26.93525 1147 ft 39 kts 174°
2026-04-23 10:28 49.35195 26.93617 1142 ft 42 kts 164°
2026-04-23 10:28 49.35062 26.93682 1140 ft 20 kts 133°
2026-04-23 10:29 49.35023 26.93726 1139 ft 6 kts 297°
2026-04-23 10:29 49.35116 26.93644 1141 ft 43 kts 349°
2026-04-23 10:29 49.35628 26.93455 1154 ft 105 kts 343°
2026-04-23 10:29 49.36458 26.93264 1445 ft 131 kts 346°
2026-04-23 10:30 49.37359 26.93209 2043 ft 136 kts 351°
2026-04-23 10:30 49.38407 26.93398 2271 ft 173 kts 17°
2026-04-23 10:30 49.39261 26.94779 2823 ft 194 kts 53°
2026-04-23 10:30 49.39920 26.96748 3129 ft 213 kts 61°
2026-04-23 10:31 49.40527 26.98836 3670 ft 217 kts 61°
2026-04-23 10:31 49.41148 27.00958 4181 ft 220 kts 62°
2026-04-23 10:31 49.41803 27.03105 4659 ft 226 kts 62°
2026-04-23 10:31 49.42497 27.05268 5175 ft 228 kts 61°
2026-04-23 10:32 49.43213 27.07427 5701 ft 229 kts 60°
2026-04-23 10:32 49.43931 27.09603 6230 ft 230 kts 61°
2026-04-23 10:32 49.44656 27.11781 6762 ft 230 kts 61°
2026-04-23 10:32 49.45388 27.13936 7297 ft 230 kts 61°
2026-04-23 10:33 49.46134 27.16100 7835 ft 230 kts 61°
2026-04-23 10:33 49.46884 27.18257 8369 ft 229 kts 61°
2026-04-23 10:33 49.47636 27.20398 8905 ft 229 kts 61°
2026-04-23 10:33 49.48405 27.22559 9450 ft 228 kts 61°
2026-04-23 10:34 49.49166 27.24686 9987 ft 227 kts 61°
2026-04-23 10:34 49.49914 27.26775 10515 ft 226 kts 61°
2026-04-23 10:34 49.50671 27.28890 11049 ft 226 kts 61°
2026-04-23 10:34 49.51421 27.30990 11579 ft 225 kts 61°
2026-04-23 10:35 49.52171 27.33088 12105 ft 224 kts 61°
2026-04-23 10:35 49.52950 27.35141 12639 ft 223 kts 57°
2026-04-23 10:35 49.53842 27.37060 13179 ft 221 kts 54°
2026-04-23 10:35 49.54734 27.38970 13664 ft 221 kts 54°
2026-04-23 10:36 49.55640 27.40899 14144 ft 221 kts 54°
2026-04-23 10:36 49.56545 27.42801 14609 ft 221 kts 53°
2026-04-23 10:36 49.57475 27.44742 14738 ft 233 kts 53°
2026-04-23 10:36 49.58459 27.46780 14757 ft 240 kts 53°
2026-04-23 10:37 49.59456 27.48849 14820 ft 244 kts 53°
2026-04-23 10:37 49.60472 27.50969 14811 ft 250 kts 53°
2026-04-23 10:37 49.61529 27.53185 14767 ft 257 kts 53°
2026-04-23 10:37 49.62589 27.55411 14787 ft 259 kts 53°
2026-04-23 10:38 49.63658 27.57659 14813 ft 262 kts 53°
2026-04-23 10:38 49.64735 27.59922 14801 ft 265 kts 53°
2026-04-23 10:38 49.65822 27.62207 14795 ft 265 kts 53°
2026-04-23 10:38 49.66920 27.64513 14793 ft 264 kts 53°
2026-04-23 10:39 49.68012 27.66811 14761 ft 265 kts 54°
2026-04-23 10:39 49.69094 27.69099 14797 ft 263 kts 54°
2026-04-23 10:39 49.70152 27.71337 14839 ft 261 kts 54°
2026-04-23 10:39 49.71231 27.73617 14762 ft 264 kts 54°
2026-04-23 10:40 49.72316 27.75905 14786 ft 262 kts 54°
2026-04-23 10:40 49.73385 27.78163 14841 ft 260 kts 54°
2026-04-23 10:40 49.74460 27.80434 14766 ft 263 kts 54°
2026-04-23 10:40 49.75546 27.82728 14777 ft 262 kts 54°
2026-04-23 10:41 49.76613 27.84982 14842 ft 260 kts 54°
2026-04-23 10:41 49.77631 27.87298 14796 ft 261 kts 61°
2026-04-23 10:41 49.78370 27.89858 14803 ft 261 kts 70°
2026-04-23 10:41 49.79031 27.92488 14730 ft 263 kts 68°
2026-04-23 10:42 49.79710 27.95113 14791 ft 260 kts 69°
2026-04-23 10:42 49.80348 27.97692 14832 ft 259 kts 70°
2026-04-23 10:42 49.80976 28.00317 14763 ft 262 kts 70°
2026-04-23 10:42 49.81604 28.02960 14778 ft 261 kts 70°
2026-04-23 10:43 49.82227 28.05577 14841 ft 258 kts 70°
2026-04-23 10:43 49.82851 28.08194 14773 ft 262 kts 70°
2026-04-23 10:43 49.83493 28.10874 14769 ft 261 kts 70°
2026-04-23 10:43 49.84119 28.13492 14840 ft 259 kts 70°
2026-04-23 10:44 49.84746 28.16116 14781 ft 262 kts 70°
2026-04-23 10:44 49.85377 28.18760 14759 ft 262 kts 70°
2026-04-23 10:44 49.85995 28.21357 14835 ft 259 kts 70°
2026-04-23 10:44 49.86621 28.23988 14791 ft 261 kts 70°
2026-04-23 10:45 49.87250 28.26632 14751 ft 263 kts 70°
2026-04-23 10:45 49.87878 28.29261 14830 ft 259 kts 70°
2026-04-23 10:45 49.88505 28.31894 14801 ft 261 kts 70°
2026-04-23 10:45 49.89134 28.34538 14748 ft 263 kts 70°
2026-04-23 10:46 49.89763 28.37177 14822 ft 260 kts 70°
2026-04-23 10:46 49.90386 28.39801 14812 ft 261 kts 70°
2026-04-23 10:46 49.91016 28.42459 14748 ft 263 kts 70°
2026-04-23 10:46 49.91643 28.45104 14814 ft 260 kts 70°
2026-04-23 10:47 49.92266 28.47733 14822 ft 260 kts 70°
2026-04-23 10:47 49.92891 28.50368 14741 ft 260 kts 70°
2026-04-23 10:47 49.93509 28.52965 14795 ft 254 kts 70°
2026-04-23 10:47 49.94116 28.55521 14823 ft 251 kts 70°
2026-04-23 10:48 49.94715 28.58046 14800 ft 250 kts 70°
2026-04-23 10:48 49.95316 28.60587 14786 ft 249 kts 70°
2026-04-23 10:48 49.95911 28.63108 14797 ft 248 kts 70°
2026-04-23 10:48 49.96503 28.65617 14784 ft 247 kts 71°
2026-04-23 10:49 49.97095 28.68132 14758 ft 247 kts 71°
2026-04-23 10:49 49.97681 28.70629 14819 ft 243 kts 71°
2026-04-23 10:49 49.98253 28.73063 14810 ft 244 kts 71°
2026-04-23 10:49 49.98840 28.75551 14747 ft 246 kts 70°
2026-04-23 10:50 49.99430 28.78047 14806 ft 242 kts 70°
2026-04-23 10:50 50.00004 28.80481 14825 ft 241 kts 70°
2026-04-23 10:50 50.00579 28.82929 14741 ft 245 kts 70°
2026-04-23 10:50 50.01157 28.85422 14750 ft 244 kts 70°
2026-04-23 10:51 50.01724 28.87916 14785 ft 242 kts 70°
2026-04-23 10:51 50.02275 28.90390 14699 ft 246 kts 70°
2026-04-23 10:51 50.02826 28.92915 14673 ft 245 kts 70°
2026-04-23 10:51 50.03362 28.95419 14723 ft 242 kts 70°
2026-04-23 10:52 50.03891 28.97934 14647 ft 245 kts 70°
2026-04-23 10:52 50.04417 29.00459 14594 ft 246 kts 70°
2026-04-23 10:52 50.04939 29.02978 14593 ft 244 kts 70°
2026-04-23 10:52 50.05453 29.05476 14584 ft 243 kts 70°
2026-04-23 10:53 50.05965 29.07967 14572 ft 241 kts 70°
2026-04-23 10:53 50.06477 29.10457 14581 ft 240 kts 70°
2026-04-23 10:53 50.06977 29.12894 14560 ft 239 kts 70°
2026-04-23 10:53 50.07486 29.15367 14567 ft 238 kts 70°
2026-04-23 10:54 50.07987 29.17816 14559 ft 237 kts 70°
2026-04-23 10:54 50.08489 29.20266 14546 ft 237 kts 70°
2026-04-23 10:54 50.08984 29.22680 14561 ft 236 kts 70°
2026-04-23 10:54 50.09483 29.25120 14552 ft 235 kts 70°
2026-04-23 10:55 50.09979 29.27545 14563 ft 234 kts 70°
2026-04-23 10:55 50.10479 29.29951 14540 ft 235 kts 70°
2026-04-23 10:55 50.10997 29.32377 14530 ft 235 kts 70°
2026-04-23 10:55 50.11583 29.34746 14579 ft 232 kts 65°
2026-04-23 10:56 50.12220 29.37033 14564 ft 233 kts 65°
2026-04-23 10:56 50.12869 29.39381 14508 ft 235 kts 65°
2026-04-23 10:56 50.13525 29.41711 14576 ft 232 kts 64°
2026-04-23 10:56 50.14227 29.43939 14603 ft 231 kts 62°
2026-04-23 10:57 50.14951 29.46213 14517 ft 235 kts 62°
2026-04-23 10:57 50.15673 29.48471 14548 ft 233 kts 62°
2026-04-23 10:57 50.16389 29.50708 14596 ft 229 kts 62°
2026-04-23 10:57 50.17098 29.52919 14530 ft 227 kts 62°
2026-04-23 10:58 50.17797 29.55089 14452 ft 220 kts 62°
2026-04-23 10:58 50.18479 29.57206 14269 ft 220 kts 61°
2026-04-23 10:58 50.19168 29.59342 14069 ft 220 kts 61°
2026-04-23 10:58 50.19857 29.61472 13876 ft 220 kts 61°
2026-04-23 10:59 50.20542 29.63590 13688 ft 219 kts 61°
2026-04-23 10:59 50.21234 29.65726 13497 ft 219 kts 62°
2026-04-23 10:59 50.21915 29.67842 13270 ft 221 kts 62°
2026-04-23 10:59 50.22609 29.69999 13045 ft 222 kts 62°
2026-04-23 11:00 50.23311 29.72175 12825 ft 223 kts 62°
2026-04-23 11:00 50.24010 29.74334 12614 ft 223 kts 62°
2026-04-23 11:00 50.24706 29.76482 12411 ft 223 kts 62°
2026-04-23 11:00 50.25414 29.78664 12208 ft 223 kts 62°
2026-04-23 11:01 50.26110 29.80804 12013 ft 223 kts 62°
2026-04-23 11:01 50.26818 29.82978 11818 ft 223 kts 62°
2026-04-23 11:01 50.27521 29.85142 11607 ft 223 kts 62°
2026-04-23 11:01 50.28214 29.87291 11403 ft 224 kts 62°
2026-04-23 11:02 50.28913 29.89478 11201 ft 223 kts 62°
2026-04-23 11:02 50.29601 29.91650 11004 ft 223 kts 62°
2026-04-23 11:02 50.30286 29.93831 10809 ft 223 kts 62°
2026-04-23 11:02 50.30963 29.96003 10617 ft 222 kts 62°
2026-04-23 11:03 50.31636 29.98176 10428 ft 222 kts 62°
2026-04-23 11:03 50.32296 30.00320 10246 ft 221 kts 62°
2026-04-23 11:03 50.32959 30.02485 10059 ft 220 kts 62°
2026-04-23 11:03 50.33618 30.04654 9873 ft 219 kts 62°
2026-04-23 11:04 50.34261 30.06784 9675 ft 213 kts 62°
2026-04-23 11:04 50.34882 30.08888 9420 ft 210 kts 62°
2026-04-23 11:04 50.35485 30.10940 9143 ft 208 kts 62°
2026-04-23 11:04 50.36084 30.12966 8866 ft 206 kts 62°
2026-04-23 11:05 50.36679 30.15010 8586 ft 205 kts 62°
2026-04-23 11:05 50.37248 30.17023 8316 ft 203 kts 62°
2026-04-23 11:05 50.37814 30.19068 8041 ft 202 kts 62°
2026-04-23 11:05 50.38194 30.21188 7779 ft 205 kts 78°
2026-04-23 11:06 50.38447 30.25610 7187 ft 205 kts 79°
2026-04-23 11:06 50.38567 30.27824 6896 ft 205 kts 81°
2026-04-23 11:06 50.38646 30.30067 6599 ft 206 kts 82°
2026-04-23 11:07 50.38728 30.32304 6313 ft 204 kts 78°
2026-04-23 11:07 50.38847 30.34491 6037 ft 204 kts 79°
2026-04-23 11:07 50.38964 30.36708 5754 ft 204 kts 79°
2026-04-23 11:07 50.39071 30.38941 5462 ft 203 kts 79°
2026-04-23 11:08 50.39176 30.41123 5182 ft 201 kts 73°
2026-04-23 11:08 50.39630 30.43102 4917 ft 192 kts 60°
2026-04-23 11:08 50.40112 30.45062 4632 ft 193 kts 61°
2026-04-23 11:08 50.40579 30.47030 4353 ft 192 kts 60°
2026-04-23 11:09 50.41088 30.48970 4072 ft 191 kts 58°
2026-04-23 11:09 50.41610 30.50871 3801 ft 190 kts 58°
2026-04-23 11:09 50.42132 30.52784 3514 ft 190 kts 58°
2026-04-23 11:09 50.42632 30.54682 3416 ft 186 kts 59°
2026-04-23 11:10 50.43031 30.56557 3589 ft 183 kts 63°
2026-04-23 11:10 50.43401 30.58482 3641 ft 181 kts 63°
2026-04-23 11:10 50.43728 30.60362 3598 ft 177 kts 67°
2026-04-23 11:10 50.43985 30.62308 3402 ft 178 kts 72°
2026-04-23 11:11 50.43952 30.64116 3592 ft 165 kts 94°
2026-04-23 11:11 50.43444 30.65774 3232 ft 175 kts 121°
2026-04-23 11:11 50.42496 30.67012 2893 ft 180 kts 149°
2026-04-23 11:11 50.41358 30.67572 2797 ft 165 kts 176°
2026-04-23 11:12 50.40308 30.67242 2778 ft 145 kts 225°
2026-04-23 11:12 50.39808 30.66052 2547 ft 134 kts 274°
2026-04-23 11:12 50.39973 30.64639 2353 ft 135 kts 294°
2026-04-23 11:12 50.39943 30.63146 2381 ft 143 kts 268°
2026-04-23 11:13 50.39830 30.61647 2342 ft 134 kts 290°
2026-04-23 11:13 50.39998 30.60278 2391 ft 120 kts 285°
2026-04-23 11:13 50.39975 30.59011 2438 ft 113 kts 288°
2026-04-23 11:13 50.40066 30.57780 2259 ft 117 kts 288°
2026-04-23 11:14 50.40086 30.56526 2123 ft 115 kts 285°
2026-04-23 11:14 50.40136 30.55285 1916 ft 117 kts 289°
2026-04-23 11:14 50.40200 30.53965 1535 ft 123 kts 286°
2026-04-23 11:14 50.40252 30.52657 1322 ft 118 kts 288°
2026-04-23 11:15 50.40264 30.51399 1159 ft 113 kts 285°
2026-04-23 11:15 50.40281 30.50194 952 ft 110 kts 285°
2026-04-23 11:15 50.40241 30.48949 898 ft 115 kts 287°
2026-04-23 11:15 50.40255 30.47673 770 ft 117 kts 280°
2026-04-23 11:16 50.40210 30.46503 574 ft 99 kts 287°
2026-04-23 11:16 50.40241 30.45563 567 ft 78 kts 281°
2026-04-23 11:16 50.40251 30.44753 567 ft 72 kts 284°
2026-04-23 11:16 50.40280 30.44002 567 ft 64 kts 289°
2026-04-23 11:17 50.40375 30.43546 567 ft 20 kts 318°
2026-04-23 11:17 50.40403 30.43523 567 ft 0 kts 350°